Wind_Speed
28 28 28 28 29 28 27 25 24 23 22 21 20 20 20 20 19 18 16 15 14 14 13 12 12 12 12 11 11 10 10 9 8 7 6 5 5 4 3 3 2 2 2 1 1 1 1 1 1
29 29 30 30 30 29 27 26 26 25 25 24 23 23 22 21 20 20 18 17 16 15 14 14 13 13 13 13 12 12 11 11 10 9 8 7 6 5 4 4 3 3 3 2 2 2 2 2 3
31 31 31 31 31 29 28 27 27 27 27 25 25 25 24 23 22 21 20 19 18 17 16 16 15 15 14 14 14 13 13 12 11 10 9 8 7 6 6 5 4 4 4 4 3 4 4 4 4
33 33 34 33 32 30 29 28 28 28 29 26 26 26 26 25 24 23 22 21 20 19 18 17 17 16 15 15 15 15 14 13 13 12 11 10 9 8 7 7 6 5 5 5 5 5 5 5 6
34 35 35 35 33 32 31 29 30 30 30 28 28 27 27 27 25 24 23 23 21 21 20 19 18 18 17 17 17 16 16 15 14 13 12 12 11 10 9 8 8 7 7 7 6 6 6 7 7
36 36 36 35 34 33 32 31 31 32 31 29 28 28 29 28 27 26 25 24 24 23 22 22 21 20 20 19 18 18 17 17 16 15 14 13 13 12 11 11 10 10 9 9 8 8 8 8 9
36 36 36 35 35 35 34 33 33 34 32 30 29 30 30 30 29 28 27 26 26 25 24 24 23 22 22 21 20 20 19 18 18 17 16 15 15 14 13 13 12 12 11 11 10 10 10 10 10
36 36 36 35 35 35 35 35 34 34 34 33 31 31 32 31 30 30 29 28 28 27 26 26 26 25 24 23 22 21 20 20 19 18 18 17 16 16 15 14 14 14 13 13 12 12 11 11 11
35 37 37 36 36 35 35 36 36 36 35 35 33 33 33 33 32 31 31 30 30 29 28 28 27 27 26 25 24 23 22 21 20 20 19 18 18 17 17 16 16 15 15 14 14 13 13 13 13
35 37 36 36 37 36 37 37 37 37 36 35 35 35 35 34 33 33 32 32 31 31 30 29 29 28 28 27 26 25 24 23 22 21 20 19 19 19 19 18 18 17 17 16 16 16 15 15 14
34 36 35 36 37 37 37 38 38 38 37 36 37 36 36 35 35 34 34 34 33 32 32 32 32 31 30 29 28 27 26 25 24 23 22 21 21 21 21 21 20 19 19 19 18 18 18 17 17
33 34 36 37 37 37 37 38 39 39 38 38 38 38 37 36 36 36 35 35 35 34 34 32 33 32 32 31 30 29 28 27 26 25 25 24 23 23 23 22 22 21 21 21 21 20 20 19 19
31 34 35 36 36 36 38 39 40 40 40 40 39 38 38 37 37 37 37 37 37 36 35 34 35 34 34 33 33 32 31 29 28 27 26 26 25 24 24 24 23 23 23 23 22 22 22 22 21
30 32 35 36 36 36 37 38 40 41 41 41 41 39 38 38 38 38 38 38 37 37 36 36 36 35 35 35 35 34 33 32 31 30 29 28 27 26 26 25 25 25 25 25 24 24 23 23 23
29 31 33 35 36 36 37 38 39 40 41 41 41 40 38 38 38 39 39 39 38 38 38 37 37 36 36 36 36 37 35 34 33 32 32 30 29 29 28 27 27 27 26 26 26 26 25 25 25
28 30 31 32 34 35 37 38 37 38 40 41 41 40 39 38 39 39 40 40 40 40 40 39 38 37 37 37 37 38 37 36 35 34 34 33 32 30 30 29 29 28 28 28 27 27 27 27 27
27 28 29 29 31 33 36 37 36 37 38 40 41 40 39 39 39 40 41 41 41 41 41 40 40 39 39 39 39 39 39 38 37 36 35 35 33 32 32 32 31 30 30 29 30 29 29 30 29
25 27 28 28 29 31 34 35 34 35 36 39 40 40 40 40 40 40 41 42 42 42 42 41 40 40 40 40 41 41 40 40 39 38 37 37 36 35 34 33 33 32 31 31 31 31 31 31 32
23 25 28 27 28 30 32 34 35 35 36 38 39 41 41 40 40 40 41 42 43 43 43 43 42 41 41 41 41 42 42 41 41 41 40 39 38 37 37 35 34 34 34 33 33 33 33 33 34
21 23 26 27 27 29 31 33 35 35 35 37 38 40 41 41 41 41 40 41 42 43 44 44 44 42 42 42 42 43 44 43 43 43 42 41 41 39 38 38 37 36 36 36 36 35 35 35 35
21 23 24 26 26 27 29 32 33 34 34 35 37 38 40 41 41 41 41 42 43 43 44 44 44 44 44 44 44 44 45 45 44 44 43 42 42 41 40 40 39 38 37 37 38 37 37 37 37
20 22 24 26 27 26 28 31 31 33 34 35 36 37 39 41 41 41 42 42 43 43 44 44 44 44 44 45 45 46 45 46 45 44 44 44 43 43 42 41 40 39 39 39 39 38 38 38 38
20 21 23 25 28 28 26 30 28 30 33 34 36 37 37 40 41 42 42 42 43 44 44 45 45 45 45 46 46 47 47 46 46 46 46 45 45 44 43 43 42 41 40 40 40 40 39 39 39
19 20 22 24 27 27 25 28 28 28 30 32 34 36 37 40 41 42 43 43 43 44 44 45 45 46 46 47 47 47 47 47 47 47 47 46 45 45 45 45 44 43 42 42 42 42 41 41 40
18 19 20 23 25 26 25 28 29 29 29 31 34 36 37 38 40 41 42 43 43 44 44 44 45 46 46 46 47 47 47 47 47 47 47 47 46 45 46 45 45 44 44 44 43 42 42 41 40
17 18 19 21 24 25 25 27 28 29 30 32 34 36 37 37 38 39 40 42 43 43 43 44 44 45 46 46 46 47 47 48 47 47 47 47 47 46 46 46 45 44 44 44 44 43 43 42 42
16 18 20 22 24 25 25 26 26 27 30 32 35 35 35 36 37 38 39 40 41 43 43 43 44 45 45 45 45 47 47 48 48 48 47 48 48 48 47 46 45 44 44 44 44 44 44 43 43
16 16 18 19 21 24 25 26 27 27 29 31 33 34 34 35 36 37 38 38 40 42 43 43 43 44 45 46 46 47 48 48 49 48 47 46 47 47 47 45 45 45 45 44 43 43 43 44 44
16 17 17 18 20 23 25 25 26 28 29 30 31 32 33 35 36 37 38 38 39 40 41 41 42 43 44 45 46 47 47 47 48 48 48 47 47 48 47 46 45 45 46 45 45 45 45 45 44
17 18 19 19 20 22 25 25 25 28 29 29 30 30 31 32 34 36 38 38 38 39 40 41 42 43 42 42 43 44 45 47 48 49 49 49 48 47 47 47 46 46 46 47 47 46 46 46 46
Wind_Direction
238 237 235 235 235 235 235 235 235 234 233 233 233 235 236 237 237 237 236 235 234 233 234 234 236 237 237 237 236 235 234 233 234 232 229 229 229 230 232 230 225 219 218 223 244 263 273 288 307
238 237 235 235 235 235 235 235 234 235 235 233 234 236 237 237 237 237 236 235 235 234 235 236 237 238 238 238 237 236 235 234 235 234 232 232 232 234 236 237 239 238 236 238 251 266 269 274 285
238 236 236 236 236 236 237 236 236 237 236 234 234 236 236 237 238 238 237 236 237 237 237 238 239 240 239 239 237 237 235 235 237 237 235 234 234 236 237 238 242 245 247 250 258 270 272 275 281
237 235 236 237 236 236 239 239 238 239 237 235 234 235 236 237 237 238 237 237 237 238 239 238 239 240 240 239 239 238 236 236 239 240 240 239 237 238 240 242 243 247 252 255 260 274 279 279 282
235 235 236 237 237 237 239 238 237 239 239 235 235 235 236 236 237 238 238 237 237 238 239 239 239 240 240 240 240 240 239 238 240 242 243 243 241 241 242 244 245 248 253 258 262 268 281 283 284
236 235 237 238 237 237 237 237 237 238 239 238 236 236 236 237 237 238 239 239 238 238 239 240 241 240 241 241 239 240 240 241 242 244 246 245 244 243 244 246 247 250 252 256 262 268 276 283 285
236 236 237 238 238 237 236 236 237 238 238 238 239 238 236 237 238 239 241 240 240 239 240 240 241 240 240 240 239 239 241 242 243 245 247 247 247 247 247 248 249 250 252 254 261 270 273 278 283
236 236 236 237 238 238 238 236 237 238 238 238 239 239 238 238 239 240 241 241 241 241 240 241 240 241 240 240 240 239 240 241 243 245 247 248 249 249 250 250 250 252 253 256 260 267 273 276 279
235 236 236 236 237 237 238 237 237 238 239 238 238 239 240 240 240 240 240 241 242 241 241 242 240 240 240 239 239 240 241 242 244 246 248 250 252 253 253 253 252 253 255 257 260 264 267 272 278
234 236 236 237 237 237 238 238 237 238 238 239 238 238 239 241 241 240 240 241 241 240 239 239 240 240 240 240 239 240 242 244 246 247 250 252 254 255 255 254 254 255 256 258 261 263 266 269 276
235 236 235 235 236 236 238 238 238 239 239 240 239 239 239 241 241 241 241 241 241 240 241 241 241 241 241 241 241 241 242 244 247 249 250 253 256 256 257 256 256 257 258 259 261 264 267 269 273
236 235 234 234 235 236 237 238 238 239 239 240 241 240 241 242 243 243 243 242 242 242 242 243 242 242 242 241 241 241 242 244 246 249 251 253 256 258 258 257 257 258 259 261 262 264 266 269 272
237 235 234 235 236 237 238 238 238 239 239 239 241 241 240 240 242 243 243 242 242 243 244 244 245 244 243 242 241 243 243 245 246 249 252 254 255 257 259 258 257 258 260 261 263 264 266 268 271
239 238 236 236 237 239 240 240 239 238 239 239 240 240 240 241 242 243 243 243 244 244 244 244 245 244 243 242 241 243 245 246 247 249 252 253 255 256 258 259 258 258 259 260 262 264 266 268 270
241 240 238 239 240 241 243 242 241 239 240 241 241 241 240 242 244 244 244 244 244 244 245 246 246 245 244 242 241 243 244 246 248 249 252 254 255 256 258 259 259 259 260 261 262 263 266 269 271
242 242 241 241 243 243 242 243 241 241 241 241 241 241 241 242 244 245 245 245 244 244 245 246 246 246 246 244 242 243 244 247 248 250 251 253 255 257 258 259 259 258 259 261 262 264 266 269 271
243 243 242 243 243 243 242 243 243 242 242 242 242 242 242 243 245 245 245 245 244 244 245 247 247 247 248 246 244 244 245 246 248 250 251 253 256 257 259 258 259 260 261 262 264 266 267 268 271
246 245 244 245 244 244 243 244 244 243 243 243 243 243 243 243 245 245 246 245 245 245 246 246 247 248 248 247 245 244 245 246 248 249 251 253 255 258 258 259 260 261 262 264 265 266 267 269 272
250 249 248 247 245 247 245 245 246 246 246 245 244 245 245 245 245 246 246 246 246 246 245 246 248 248 248 247 246 246 246 247 248 249 251 252 254 257 258 260 261 262 264 265 265 266 268 270 271
251 252 249 247 245 248 247 247 246 246 246 246 246 246 247 246 245 246 246 246 246 247 245 246 247 247 248 248 247 246 246 246 248 250 252 253 255 257 259 260 262 263 265 265 265 267 269 271 272
255 254 250 248 246 250 252 252 249 247 247 248 248 248 249 249 248 247 246 247 247 247 246 247 248 247 248 249 248 247 247 247 249 250 252 254 256 257 259 261 262 264 264 265 266 267 269 270 271
259 256 253 251 248 252 255 256 251 250 249 250 250 250 251 251 250 249 248 248 248 248 247 247 247 248 248 248 248 247 247 248 249 252 253 254 254 256 258 260 261 263 263 264 265 266 269 270 271
262 259 255 256 254 254 256 258 256 255 253 252 252 252 253 252 252 251 250 249 248 248 248 248 248 248 248 248 248 248 248 249 250 251 253 253 253 255 257 259 261 262 263 264 264 266 268 270 272
265 263 258 258 257 258 259 261 260 261 259 258 256 255 255 254 252 251 251 249 249 249 249 248 248 248 248 248 248 248 249 249 251 251 252 254 254 254 256 259 260 261 262 263 264 265 267 269 272
264 264 262 261 260 262 264 265 266 267 265 264 263 260 257 256 254 252 251 250 249 249 249 248 248 248 248 249 249 249 250 249 250 251 252 254 255 255 257 258 260 261 261 262 263 265 266 267 270
264 264 264 265 266 268 267 268 270 270 270 268 266 262 260 259 257 254 252 251 251 250 250 249 249 250 250 249 249 249 249 250 250 251 253 253 255 255 257 258 259 260 261 261 263 264 265 267 268
266 266 266 269 270 272 272 273 272 272 272 271 267 264 263 261 259 254 252 253 253 252 250 249 249 250 250 250 250 250 249 250 250 250 252 253 253 255 257 258 258 259 262 262 263 265 266 266 267
269 267 269 272 273 276 279 279 279 278 277 275 271 266 262 260 258 255 253 253 253 252 250 249 249 251 251 251 250 250 250 251 250 250 252 253 253 254 256 257 259 260 261 262 263 264 265 266 267
269 267 272 276 276 280 282 282 284 283 282 282 277 269 265 262 259 257 255 253 253 253 251 249 250 251 252 252 252 251 250 250 250 250 251 253 253 254 255 257 258 259 261 261 262 264 266 267 268
275 273 275 279 279 279 282 285 287 287 284 283 280 272 267 264 261 260 257 253 252 252 250 250 251 251 251 252 252 251 251 251 250 250 251 253 253 253 254 256 258 260 260 261 262 264 266 267 269
Height
5814 5816 5818 5821 5823 5826 5829 5833 5835 5837 5839 5842 5844 5847 5848 5850 5852 5856 5856 5856 5858 5860 5861 5862 5863 5865 5866 5867 5868 5869 5869 5870 5870 5871 5871 5872 5872 5873 5873 5873 5874 5874 5874 5874 5874 5875 5875 5875 5874
5808 5811 5813 5815 5817 5821 5825 5828 5830 5833 5835 5838 5841 5843 5845 5846 5848 5850 5852 5854 5856 5858 5859 5860 5861 5863 5864 5865 5866 5867 5868 5869 5869 5870 5871 5871 5871 5872 5872 5873 5873 5873 5874 5874 5874 5874 5874 5874 5874
5801 5804 5807 5809 5812 5816 5821 5824 5826 5828 5830 5834 5837 5839 5841 5843 5845 5847 5849 5851 5853 5855 5856 5858 5859 5860 5862 5863 5864 5865 5866 5867 5868 5869 5869 5870 5871 5871 5871 5872 5872 5873 5873 5873 5873 5873 5873 5873 5873
5794 5797 5800 5804 5807 5812 5815 5819 5821 5823 5826 5829 5832 5834 5836 5839 5842 5844 5846 5848 5850 5852 5854 5855 5856 5858 5859 5860 5862 5863 5864 5865 5866 5867 5868 5869 5869 5870 5870 5871 5871 5872 5872 5872 5872 5872 5872 5872 5872
5787 5790 5793 5797 5802 5806 5809 5813 5816 5817 5820 5824 5827 5830 5832 5835 5838 5840 5842 5844 5847 5849 5850 5852 5854 5855 5856 5858 5859 5860 5862 5863 5864 5865 5866 5867 5868 5868 5869 5869 5870 5870 5871 5871 5871 5871 5871 5871 5871
5779 5783 5787 5791 5796 5800 5803 5806 5809 5812 5815 5818 5822 5824 5827 5830 5833 5836 5838 5840 5843 5845 5847 5848 5850 5852 5853 5855 5856 5858 5859 5860 5861 5863 5864 5865 5866 5866 5867 5867 5868 5868 5869 5869 5869 5869 5869 5869 5869
5771 5775 5780 5785 5789 5793 5797 5800 5803 5805 5809 5813 5816 5818 5822 5825 5828 5831 5833 5836 5838 5841 5843 5844 5846 5848 5849 5851 5853 5854 5856 5857 5859 5860 5861 5862 5863 5864 5865 5865 5866 5866 5867 5867 5867 5867 5867 5867 5867
5763 5768 5772 5777 5781 5785 5789 5793 5796 5799 5803 5806 5810 5813 5816 5820 5823 5826 5828 5831 5833 5836 5838 5839 5841 5843 5845 5847 5849 5851 5852 5854 5855 5857 5858 5859 5860 5861 5862 5863 5863 5864 5864 5864 5865 5865 5865 5865 5865
5755 5760 5764 5770 5774 5778 5782 5786 5789 5792 5796 5800 5803 5806 5810 5813 5816 5820 5823 5825 5828 5830 5832 5834 5836 5838 5840 5843 5845 5847 5848 5850 5851 5853 5854 5856 5857 5858 5859 5860 5860 5861 5861 5862 5862 5862 5863 5863 5862
5746 5751 5758 5763 5766 5770 5774 5778 5781 5785 5789 5793 5796 5800 5803 5807 5810 5814 5816 5819 5821 5824 5826 5828 5830 5833 5835 5838 5840 5842 5844 5846 5848 5849 5851 5852 5854 5855 5856 5856 5857 5858 5858 5859 5859 5859 5860 5860 5860
5739 5744 5750 5754 5757 5761 5765 5770 5773 5777 5782 5786 5789 5793 5796 5800 5803 5807 5809 5812 5814 5817 5820 5822 5824 5827 5830 5832 5835 5837 5840 5842 5844 5845 5847 5848 5850 5851 5852 5852 5853 5854 5854 5855 5856 5856 5856 5856 5856
5732 5737 5741 5745 5749 5753 5756 5760 5765 5769 5775 5777 5780 5785 5789 5792 5796 5799 5802 5805 5807 5810 5813 5815 5818 5821 5823 5826 5829 5832 5834 5837 5839 5840 5842 5844 5845 5846 5847 5848 5849 5850 5850 5851 5851 5852 5852 5852 5853
5725 5730 5733 5738 5741 5745 5748 5752 5756 5761 5765 5768 5772 5776 5780 5784 5787 5791 5794 5797 5800 5803 5806 5809 5811 5814 5816 5819 5822 5825 5828 5831 5833 5835 5837 5838 5840 5841 5842 5843 5844 5845 5845 5846 5847 5847 5848 5848 5848
5719 5722 5725 5730 5733 5736 5740 5744 5747 5752 5755 5759 5763 5767 5771 5774 5778 5782 5786 5789 5792 5796 5799 5801 5803 5806 5809 5812 5815 5819 5822 5824 5827 5829 5830 5832 5834 5835 5837 5838 5839 5839 5840 5840 5841 5842 5842 5843 5843
5712 5715 5719 5722 5724 5728 5730 5735 5739 5743 5746 5750 5754 5758 5762 5766 5769 5773 5777 5781 5784 5787 5791 5793 5796 5798 5801 5804 5808 5811 5814 5818 5820 5822 5824 5826 5827 5829 5831 5832 5833 5834 5834 5835 5835 5836 5837 5837 5838
5705 5708 5711 5715 5716 5719 5723 5726 5731 5733 5737 5741 5745 5749 5753 5757 5760 5764 5768 5771 5775 5779 5782 5785 5787 5790 5793 5796 5800 5803 5807 5810 5813 5815 5817 5819 5821 5822 5824 5825 5826 5827 5828 5828 5829 5830 5831 5831 5832
5699 5701 5704 5708 5710 5712 5714 5718 5723 5725 5728 5732 5736 5740 5744 5748 5751 5755 5758 5762 5766 5770 5773 5777 5779 5782 5785 5788 5791 5795 5798 5802 5805 5807 5809 5811 5813 5815 5817 5818 5819 5820 5821 5822 5823 5823 5824 5824 5825
5695 5696 5699 5701 5703 5705 5708 5711 5715 5718 5721 5724 5728 5731 5735 5739 5743 5746 5750 5753 5757 5760 5764 5768 5771 5774 5777 5780 5783 5787 5790 5794 5797 5799 5801 5804 5806 5808 5809 5811 5812 5813 5814 5815 5815 5816 5817 5817 5817
5690 5692 5694 5696 5697 5699 5702 5704 5708 5711 5713 5716 5719 5722 5726 5730 5734 5737 5741 5744 5748 5751 5755 5759 5762 5765 5768 5771 5774 5778 5781 5785 5788 5791 5793 5795 5797 5799 5801 5803 5804 5805 5806 5807 5808 5809 5809 5810 5810
5684 5686 5687 5690 5691 5693 5695 5697 5701 5703 5706 5708 5711 5713 5717 5720 5724 5727 5731 5735 5738 5742 5745 5749 5752 5756 5759 5762 5765 5769 5773 5776 5779 5782 5784 5786 5788 5791 5793 5794 5796 5797 5798 5799 5800 5800 5801 5801 5802
5680 5680 5682 5683 5685 5687 5689 5690 5693 5696 5698 5700 5702 5705 5707 5710 5714 5718 5721 5725 5728 5732 5735 5739 5742 5746 5749 5752 5755 5759 5762 5766 5769 5772 5775 5777 5780 5782 5784 5785 5787 5788 5789 5790 5791 5792 5792 5793 5793
5675 5675 5676 5677 5679 5681 5682 5681 5685 5688 5690 5692 5694 5697 5699 5701 5704 5708 5711 5715 5718 5722 5725 5729 5732 5735 5739 5742 5745 5748 5752 5756 5760 5762 5765 5767 5770 5772 5774 5775 5777 5779 5780 5781 5782 5783 5783 5784 5784
5670 5670 5671 5672 5673 5675 5676 5675 5678 5679 5681 5684 5686 5688 5690 5692 5695 5698 5702 5705 5708 5711 5715 5718 5722 5725 5728 5732 5735 5738 5742 5746 5749 5752 5754 5757 5759 5762 5763 5765 5767 5769 5770 5771 5773 5774 5774 5775 5775
5665 5665 5666 5666 5667 5668 5670 5669 5670 5672 5674 5675 5677 5678 5680 5682 5685 5688 5691 5694 5698 5701 5704 5708 5711 5714 5717 5721 5724 5727 5730 5734 5738 5741 5743 5746 5749 5751 5753 5755 5757 5759 5760 5762 5763 5764 5765 5765 5766
5661 5661 5661 5660 5660 5662 5664 5663 5665 5666 5667 5668 5668 5669 5671 5672 5675 5678 5681 5684 5687 5691 5694 5697 5701 5704 5706 5709 5713 5716 5719 5723 5726 5730 5733 5735 5738 5741 5743 5744 5747 5748 5750 5751 5753 5754 5755 5756 5756
5657 5656 5657 5656 5655 5656 5657 5657 5660 5660 5660 5660 5660 5660 5661 5663 5665 5668 5671 5674 5677 5680 5683 5687 5690 5693 5696 5699 5702 5705 5708 5712 5715 5718 5721 5724 5727 5730 5732 5734 5736 5738 5739 5741 5742 5744 5745 5746 5747
5652 5652 5653 5652 5651 5651 5651 5652 5653 5653 5653 5652 5652 5652 5653 5655 5656 5658 5661 5664 5667 5670 5673 5676 5679 5682 5685 5688 5691 5694 5697 5700 5704 5707 5710 5714 5716 5719 5721 5723 5726 5728 5729 5731 5732 5734 5735 5736 5737
5649 5648 5649 5648 5647 5645 5646 5647 5647 5647 5646 5645 5644 5644 5645 5646 5648 5649 5652 5655 5657 5660 5663 5666 5669 5672 5674 5677 5679 5682 5686 5689 5692 5695 5699 5702 5705 5708 5710 5713 5715 5717 5719 5720 5722 5723 5724 5725 5726
5645 5645 5644 5643 5643 5642 5640 5643 5642 5640 5639 5638 5636 5636 5636 5638 5639 5640 5642 5645 5647 5650 5653 5656 5659 5661 5664 5666 5669 5671 5674 5677 5680 5684 5688 5691 5694 5697 5700 5702 5704 5706 5708 5710 5711 5712 5714 5715 5715
5641 5641 5640 5640 5639 5637 5636 5639 5636 5634 5632 5631 5629 5629 5628 5629 5630 5631 5633 5635 5638 5640 5643 5646 5649 5651 5653 5656 5658 5660 5663 5666 5669 5673 5677 5680 5683 5686 5689 5691 5693 5694 5696 5698 5700 5701 5702 5703 5704